User: anonymous   Login
Location: Unspecified
(0.0000°N, 0.0000°E)
Time: 09:30:34
(UTC+01:00)
Language:

ARIANE 5 R/B - Orbit

View from above orbital plane
View from above orbital plane
View from above satellite
View from above satellite

Ground track
Ground track

The orbit data is extracted from the following two-line orbital elements,

1 29646U 06054D   14354.42904293  .00004303  00000-0  12750-2 0  8011
2 29646 003.0081 021.4431 7136821 204.5826 351.2851 02.46001569 69060
Epoch (UTC): 20 December 2014 10:17:49
Eccentricity: 0.7136821
inclination: 3.0081°
perigee height: 258 km
apogee height: 33344 km
right ascension of ascending node: 21.4431°
argument of perigee: 204.5826°
revolutions per day: 2.46001569
mean anomaly at epoch: 351.2851°
orbit number at epoch: 6906

The dashed part of the orbit path shows where the satellite is in the earth's shadow,  

DLR